Wind_Speed
33 34 35 35 36 36 37 37 37 38 39 39 40 41 41 42 43 43 44 45 46 47 47 48 48 48 48 49 49 50 51 51 51 51 53 54 55 57 58 60 61 62 64
32 33 33 34 34 35 35 36 37 38 39 39 40 41 42 43 43 44 45 46 47 48 48 48 48 49 50 50 51 51 52 54 55 55 56 57 59 61 62 63 64 66 68
31 31 32 32 33 34 35 36 37 38 38 40 41 41 42 43 44 45 46 47 48 48 48 49 50 50 51 52 53 54 55 57 58 58 59 60 62 64 65 67 69 71 73
30 31 32 32 33 34 35 36 37 38 39 40 41 42 43 44 45 46 47 47 48 48 49 50 51 52 53 54 55 57 58 59 60 61 62 63 65 67 70 72 73 74 76
30 31 32 32 33 34 35 36 37 38 40 41 42 42 43 44 46 47 47 48 49 50 51 52 53 54 55 57 58 59 60 62 63 65 66 67 69 71 74 75 76 76 76
30 30 31 32 33 33 35 36 38 39 40 41 42 42 44 45 46 47 48 49 50 51 52 54 55 56 57 59 60 62 64 65 67 68 69 71 73 75 76 76 77 76 75
30 30 31 32 33 34 35 37 38 40 41 42 42 44 45 46 47 48 49 50 51 53 54 55 56 58 60 62 63 65 66 67 70 72 73 74 75 75 76 76 76 75 73
29 30 31 32 34 35 37 38 39 40 41 42 43 44 46 47 48 49 51 52 53 54 56 57 59 61 63 65 66 67 68 70 72 74 75 75 75 76 76 75 74 72 68
29 30 31 33 34 35 37 38 39 40 41 42 44 45 47 48 50 51 52 54 55 56 58 60 62 64 66 68 69 70 71 72 74 75 76 76 75 75 73 72 70 67 63
30 32 33 34 35 36 37 38 40 41 42 44 45 47 48 49 51 53 54 56 57 58 60 63 65 67 69 70 72 74 75 75 75 75 75 74 73 70 68 67 65 62 58
32 33 34 35 36 37 38 39 40 42 43 45 46 47 49 50 52 54 56 58 59 61 63 66 68 70 71 73 75 76 77 76 75 74 72 70 67 65 63 60 58 55 51
33 34 35 36 37 37 39 40 42 43 45 46 47 48 50 52 54 56 58 61 63 65 67 69 71 72 73 74 75 76 76 75 73 71 68 65 62 59 56 54 52 49 45
34 35 36 36 37 38 40 41 42 44 45 46 48 50 51 53 56 58 61 63 66 68 70 72 73 74 74 75 75 74 73 72 70 67 63 60 57 54 51 49 46 43 40
34 35 36 37 38 39 40 42 43 44 46 48 49 51 53 55 58 61 64 67 69 71 73 74 74 74 74 74 73 72 70 68 65 61 58 55 53 50 47 44 41 38 35
35 36 36 37 39 40 41 42 44 45 47 49 51 54 56 58 61 65 68 70 72 74 75 75 74 74 73 72 70 68 66 62 59 56 54 51 48 45 42 39 36 34 31
36 36 37 38 39 40 42 43 45 47 49 51 54 56 59 62 65 67 70 72 74 75 75 75 74 72 70 69 67 63 60 57 54 52 49 46 43 40 37 35 32 30 27
36 37 38 39 40 41 43 45 47 49 51 53 56 59 62 65 67 69 72 73 74 74 74 73 71 69 67 65 61 58 55 52 50 47 44 42 39 36 33 31 29 26 24
37 38 39 40 41 43 45 47 49 51 53 56 59 62 64 67 69 71 72 73 73 72 72 70 67 65 63 60 56 54 51 49 46 43 40 37 35 32 29 27 25 23 22
38 39 40 42 44 45 47 49 52 54 57 59 62 64 67 69 71 72 73 73 71 69 67 65 63 61 58 55 53 51 48 45 42 39 36 33 31 28 26 24 22 21 20
39 40 42 44 45 47 49 52 55 57 60 62 64 66 69 70 71 72 72 70 68 66 63 61 59 57 54 51 49 47 44 40 37 34 32 29 27 24 22 21 20 19 18
40 42 44 45 47 50 52 55 57 60 62 64 67 69 71 72 72 71 68 66 64 61 59 57 54 51 49 47 45 41 38 35 32 30 27 25 23 21 20 19 18 17 16
42 44 46 47 50 53 55 58 60 63 65 67 69 71 72 71 69 67 64 61 58 56 54 52 49 47 45 43 39 36 33 30 28 26 24 22 21 20 18 17 16 15 14
44 46 48 50 53 55 58 60 63 65 67 68 70 71 70 67 64 61 58 56 54 52 50 48 45 43 41 38 34 31 29 27 25 23 21 20 19 18 17 16 15 14 13
46 48 50 53 56 58 61 63 65 66 68 69 70 68 65 62 59 56 54 52 50 48 46 44 42 40 37 33 30 28 26 24 22 20 19 18 18 17 16 15 14 13 13
48 50 53 56 58 61 63 64 66 67 69 69 67 64 60 57 54 52 50 48 46 44 42 40 38 36 33 30 27 25 24 22 21 19 18 17 16 16 15 14 14 13 12
51 53 56 59 61 62 64 65 67 67 67 65 62 58 55 52 50 47 45 44 42 40 38 36 34 31 28 26 25 24 22 21 20 18 17 16 15 15 14 14 13 13 13
Wind_Direction
268 268 268 269 271 272 273 274 275 277 279 281 283 286 288 289 291 292 293 295 296 297 298 298 299 299 299 299 299 299 298 298 298 297 297 296 295 295 294 293 292 291 291
269 270 270 271 272 273 274 275 277 279 280 281 284 286 288 290 292 293 294 296 297 297 298 299 299 300 300 300 300 299 299 299 299 298 297 297 296 296 295 294 294 294 293
270 271 272 272 273 274 275 276 278 279 281 283 285 288 289 291 293 294 295 296 297 298 299 300 300 300 300 300 300 300 300 300 300 299 299 298 298 297 297 296 295 295 294
271 271 272 273 274 275 277 279 280 281 282 284 287 289 290 292 293 294 295 296 298 299 300 300 301 301 301 301 301 301 301 301 301 301 300 300 300 299 298 297 297 296 296
273 273 274 275 275 277 278 279 281 282 284 286 288 290 291 292 294 295 296 297 298 299 300 300 301 301 302 302 302 302 302 302 302 301 301 301 301 300 299 299 298 297 297
275 276 276 277 278 279 280 281 282 284 286 288 289 291 292 294 295 296 297 298 299 299 300 300 301 302 302 302 303 303 303 303 303 302 302 302 302 301 300 300 299 299 298
278 278 278 279 279 280 281 282 284 285 287 288 290 292 293 294 295 296 297 298 299 300 300 301 302 302 302 303 303 303 304 304 304 303 303 303 302 301 301 301 301 301 301
279 280 280 281 281 281 283 284 285 286 288 289 291 292 294 295 295 296 297 298 299 300 301 302 302 303 303 303 303 304 304 304 304 304 304 304 303 303 302 302 302 302 302
280 281 282 282 283 284 285 286 286 288 289 290 292 293 294 295 296 296 297 298 300 301 302 302 303 303 303 303 304 305 305 304 304 304 304 304 304 303 303 303 303 303 303
280 281 282 283 285 286 286 287 288 289 290 291 293 294 295 296 296 297 298 299 300 301 302 303 303 304 304 304 305 305 305 304 304 304 304 304 304 303 303 303 303 303 303
281 282 284 285 286 286 287 288 289 290 291 292 293 295 296 297 297 298 299 300 301 302 303 304 304 304 305 305 305 305 304 304 304 304 304 304 304 303 303 303 303 303 303
283 284 285 285 286 287 288 289 290 291 292 293 294 296 297 297 298 299 300 301 302 303 304 304 305 305 305 305 305 304 304 305 305 305 305 304 304 304 304 304 304 303 302
284 285 285 286 287 288 289 290 291 292 293 294 296 297 298 299 300 300 301 303 303 304 305 305 305 305 305 305 305 305 305 305 305 305 304 304 304 304 303 303 303 302 302
286 286 287 288 288 289 290 291 292 293 295 296 297 298 299 300 301 302 303 304 304 305 305 306 306 305 305 305 305 305 305 304 304 304 304 304 303 302 302 302 302 302 301
287 288 288 289 290 290 291 293 294 295 297 298 299 300 301 302 302 303 304 305 305 306 306 306 306 305 305 305 305 305 304 304 304 303 303 303 302 302 301 301 301 301 299
288 289 290 291 292 293 294 295 296 297 298 299 300 302 302 303 304 304 305 306 306 306 306 307 306 306 306 305 305 305 304 304 303 303 303 302 301 301 300 299 299 298 297
289 291 292 293 293 294 296 297 298 299 300 301 302 303 304 304 305 306 306 306 307 307 307 307 307 306 306 306 306 305 304 303 303 303 302 301 300 300 298 298 297 295 294
291 292 293 294 295 296 297 298 299 301 302 303 304 304 305 306 306 307 307 307 307 307 307 307 307 307 307 306 306 305 304 304 303 302 300 300 299 298 296 295 294 292 292
292 293 294 295 297 298 299 300 302 303 304 304 305 305 306 307 308 308 308 308 308 308 308 308 308 307 307 306 305 305 304 303 302 300 299 298 297 296 294 293 291 289 290
293 294 296 297 299 300 301 302 303 304 305 306 306 307 307 308 308 308 308 308 308 308 308 308 308 307 307 306 305 304 303 302 301 299 298 297 295 293 291 290 289 287 287
295 296 298 299 301 302 303 304 305 306 307 307 307 308 308 309 309 308 308 308 308 308 309 309 309 308 308 307 306 305 304 302 300 299 297 294 292 290 288 286 284 284 283
296 298 299 301 302 304 305 306 307 307 308 308 309 309 310 309 309 309 308 308 308 309 309 310 310 309 309 308 307 305 303 301 300 298 295 291 290 287 285 282 280 279 277
298 300 301 303 304 305 306 307 308 308 309 310 310 310 310 309 309 309 308 309 309 309 310 310 310 310 309 309 307 305 303 301 299 296 292 289 287 285 282 278 275 273 271
300 302 303 305 306 307 307 308 309 310 310 310 311 311 310 310 309 309 309 309 309 310 310 309 309 309 309 308 307 305 303 302 299 295 291 289 286 283 278 273 270 267 264
302 304 305 306 307 308 308 309 310 310 311 311 312 311 310 310 309 309 309 309 310 311 310 310 309 309 309 307 306 304 303 301 298 294 291 288 284 279 274 268 265 262 257
304 305 307 308 308 309 309 310 310 311 311 312 312 311 310 310 310 310 310 311 311 311 311 310 310 310 308 307 306 304 302 300 297 293 289 285 280 276 270 264 260 256 251
Height
5706 5706 5706 5706 5706 5705 5705 5704 5704 5703 5701 5700 5698 5697 5694 5692 5689 5686 5683 5680 5677 5673 5669 5664 5660 5656 5651 5647 5643 5638 5634 5629 5627 5624 5618 5612 5607 5602 5597 5591 5586 5581 5575
5697 5697 5697 5697 5697 5697 5696 5695 5695 5694 5692 5691 5689 5687 5685 5682 5679 5676 5673 5669 5665 5661 5657 5653 5648 5644 5639 5634 5630 5625 5620 5615 5611 5609 5604 5597 5591 5585 5579 5574 5568 5561 5555
5689 5689 5689 5689 5689 5688 5687 5687 5686 5684 5683 5681 5679 5677 5675 5672 5669 5665 5662 5658 5654 5650 5645 5641 5636 5631 5627 5622 5617 5612 5606 5601 5596 5591 5587 5581 5574 5567 5560 5555 5548 5541 5534
5681 5681 5681 5680 5680 5679 5678 5678 5676 5675 5674 5672 5670 5667 5664 5661 5658 5654 5651 5647 5643 5638 5634 5629 5624 5619 5614 5608 5603 5597 5592 5586 5580 5574 5569 5563 5556 5548 5540 5533 5528 5520 5512
5673 5673 5672 5672 5671 5670 5670 5669 5667 5666 5664 5662 5660 5657 5654 5651 5647 5643 5639 5635 5631 5626 5621 5616 5611 5605 5600 5594 5588 5582 5576 5570 5563 5556 5551 5545 5537 5528 5520 5511 5504 5497 5490
5664 5664 5664 5663 5662 5662 5661 5659 5658 5656 5654 5652 5649 5646 5643 5640 5636 5632 5628 5624 5619 5614 5609 5604 5598 5592 5586 5580 5573 5567 5560 5552 5545 5538 5532 5524 5516 5507 5497 5489 5480 5473 5468
5656 5656 5655 5655 5654 5653 5651 5650 5648 5646 5644 5642 5639 5636 5632 5628 5624 5620 5616 5612 5607 5602 5596 5590 5585 5578 5571 5565 5558 5551 5543 5534 5526 5518 5511 5503 5494 5486 5476 5468 5458 5450 5443
5648 5648 5647 5646 5645 5643 5642 5640 5638 5636 5634 5631 5628 5624 5621 5617 5612 5608 5603 5599 5594 5588 5582 5576 5570 5563 5555 5548 5542 5535 5527 5518 5508 5499 5490 5482 5472 5463 5453 5444 5436 5429 5423
5640 5639 5638 5637 5636 5634 5632 5630 5628 5626 5623 5620 5617 5613 5609 5605 5600 5595 5590 5586 5581 5575 5569 5562 5554 5547 5540 5531 5524 5517 5509 5500 5489 5479 5470 5461 5452 5442 5432 5423 5416 5408 5404
5632 5631 5629 5628 5626 5624 5622 5620 5618 5615 5612 5609 5606 5601 5597 5593 5587 5582 5577 5572 5567 5562 5555 5547 5539 5530 5522 5513 5504 5496 5488 5480 5470 5461 5452 5442 5432 5423 5414 5404 5397 5390 5385
5623 5621 5620 5619 5617 5615 5612 5610 5607 5605 5601 5598 5594 5590 5585 5580 5574 5569 5563 5557 5551 5546 5539 5532 5523 5513 5504 5495 5485 5475 5466 5458 5450 5441 5433 5424 5415 5406 5398 5390 5382 5375 5370
5614 5612 5611 5609 5607 5604 5602 5599 5597 5594 5590 5586 5582 5577 5572 5567 5561 5555 5548 5542 5535 5529 5522 5514 5505 5496 5486 5476 5466 5456 5446 5437 5428 5421 5413 5405 5397 5390 5383 5376 5369 5363 5358
5604 5603 5601 5599 5596 5594 5592 5589 5586 5582 5578 5574 5570 5565 5559 5553 5547 5540 5533 5526 5518 5511 5504 5495 5486 5477 5467 5457 5447 5436 5426 5417 5409 5402 5395 5388 5381 5375 5369 5363 5357 5352 5348
5595 5593 5591 5589 5586 5584 5581 5577 5574 5570 5566 5562 5557 5552 5546 5540 5532 5525 5518 5510 5501 5493 5484 5476 5467 5457 5447 5437 5428 5418 5408 5399 5391 5385 5379 5373 5366 5361 5356 5351 5346 5342 5339
5585 5583 5581 5578 5576 5573 5570 5566 5562 5558 5553 5549 5543 5538 5532 5526 5517 5509 5500 5492 5483 5474 5464 5456 5447 5437 5428 5418 5409 5400 5391 5383 5375 5369 5363 5358 5353 5348 5344 5339 5336 5333 5330
5575 5573 5570 5568 5565 5562 5559 5555 5550 5546 5541 5535 5529 5523 5516 5509 5501 5492 5483 5474 5463 5453 5443 5435 5426 5417 5407 5399 5390 5382 5374 5367 5361 5355 5350 5345 5340 5337 5333 5329 5326 5324 5322
5565 5563 5560 5557 5554 5551 5547 5543 5539 5534 5527 5521 5514 5507 5500 5492 5483 5474 5465 5455 5445 5434 5424 5415 5406 5397 5388 5380 5372 5365 5358 5352 5346 5341 5336 5332 5329 5326 5323 5320 5318 5316 5314
5555 5552 5549 5546 5543 5539 5535 5531 5526 5521 5515 5508 5500 5491 5483 5475 5466 5456 5446 5436 5427 5416 5405 5396 5387 5379 5371 5363 5356 5350 5344 5338 5333 5328 5325 5321 5318 5315 5313 5312 5310 5308 5307
5544 5542 5538 5535 5531 5527 5523 5518 5512 5506 5500 5493 5485 5476 5467 5458 5448 5438 5427 5417 5408 5399 5388 5379 5370 5362 5354 5347 5341 5335 5330 5325 5321 5317 5313 5311 5308 5306 5305 5304 5302 5301 5301
5534 5530 5527 5523 5519 5514 5509 5504 5498 5491 5484 5476 5468 5459 5450 5441 5431 5421 5410 5399 5390 5381 5372 5363 5355 5347 5339 5333 5327 5322 5317 5313 5309 5306 5304 5301 5300 5298 5297 5296 5296 5295 5294
5523 5519 5515 5511 5506 5501 5496 5489 5482 5475 5468 5459 5451 5441 5431 5422 5412 5402 5392 5382 5373 5364 5356 5348 5340 5333 5326 5320 5314 5310 5306 5302 5299 5297 5295 5293 5292 5291 5290 5290 5289 5289 5289
5511 5507 5503 5498 5493 5487 5481 5474 5467 5459 5450 5442 5433 5423 5412 5402 5393 5384 5374 5366 5357 5349 5341 5334 5327 5320 5314 5308 5303 5299 5296 5293 5291 5289 5287 5286 5285 5284 5284 5284 5284 5284 5284
5499 5495 5490 5485 5479 5473 5466 5458 5450 5442 5433 5424 5414 5405 5395 5384 5375 5366 5358 5350 5343 5335 5328 5321 5315 5309 5303 5298 5294 5290 5287 5285 5283 5281 5280 5279 5279 5278 5278 5278 5278 5279 5279
5487 5482 5477 5471 5464 5457 5450 5442 5433 5424 5415 5406 5396 5386 5377 5368 5359 5351 5344 5337 5330 5323 5316 5310 5304 5299 5294 5289 5285 5282 5280 5278 5276 5275 5274 5273 5273 5272 5273 5273 5274 5274 5275
5474 5469 5463 5456 5449 5442 5434 5425 5416 5407 5398 5388 5379 5369 5360 5352 5345 5338 5330 5324 5317 5311 5305 5299 5294 5289 5285 5281 5278 5275 5273 5271 5269 5268 5268 5267 5267 5267 5267 5268 5269 5270 5271
5460 5454 5448 5441 5433 5425 5417 5408 5399 5390 5380 5371 5362 5354 5346 5338 5331 5324 5318 5312 5306 5300 5295 5290 5285 5281 5277 5274 5271 5268 5266 5265 5263 5262 5262 5262 5262 5262 5262 5263 5264 5265 5267